Cloud_Cover
92 66 14 3 19 47 100 86 100 74 74 95 100 3 3 0 0 0 22 81 100 84 5 30 37 100 100 100 100 100 100 76 0 0 1 0 5 2 5 5 40 88 16
93 22 100 100 100 52 100 36 56 8 66 92 26 20 0 0 2 0 0 2 5 69 91 90 100 100 100 100 100 100 100 100 94 0 0 0 2 5 4 3 10 42 5
14 5 49 81 96 8 1 50 96 100 9 0 2 0 0 9 3 0 0 0 1 5 13 94 18 100 91 100 100 100 100 100 100 100 0 3 4 5 5 5 5 94 5
13 31 38 83 100 81 100 92 20 100 32 0 1 0 1 0 9 2 15 0 2 0 4 5 83 99 100 51 100 100 100 100 100 100 100 84 5 5 5 5 3 58 69
94 56 58 100 96 31 88 56 2 90 0 0 0 1 13 10 2 27 0 30 9 17 0 0 5 12 44 100 100 100 100 100 100 100 100 100 50 0 1 0 1 5 26
26 31 80 32 0 89 36 71 79 0 0 6 0 0 6 26 13 8 5 5 5 20 64 14 8 17 5 93 100 100 100 100 100 100 100 100 100 16 0 0 0 3 5
16 8 0 100 13 12 100 17 0 0 0 42 0 83 17 4 13 5 9 3 5 0 5 0 14 52 31 5 23 100 100 100 100 100 100 100 100 100 8 0 0 0 5
99 28 10 5 7 76 0 7 0 0 1 22 8 3 90 74 93 78 0 2 7 8 0 0 0 0 43 28 5 5 100 100 100 100 100 100 100 100 100 12 0 0 1
36 10 18 2 23 0 0 0 0 3 4 41 0 10 19 96 64 49 6 1 1 0 20 3 0 0 0 0 4 5 16 100 100 100 100 100 100 100 100 100 11 0 0
26 28 16 34 27 0 0 0 0 5 1 11 23 0 0 5 5 90 100 26 5 5 0 0 0 1 0 0 0 3 5 10 100 100 100 100 100 100 100 100 100 37 2
9 1 4 24 9 0 1 5 0 0 14 0 5 50 14 5 5 63 99 98 98 57 6 0 0 0 8 0 0 0 4 5 60 100 100 100 100 100 100 100 100 100 7
0 0 0 37 0 17 31 5 6 0 5 3 3 49 71 86 82 96 43 91 100 97 25 22 3 0 13 4 0 0 0 4 21 19 99 100 100 100 100 100 100 100 100
0 0 0 11 4 30 69 65 1 24 5 14 6 16 100 100 52 68 100 100 100 100 89 9 10 25 1 68 2 0 0 0 4 6 5 53 100 100 100 100 100 100 100
0 0 1 5 98 95 26 5 5 100 96 84 93 73 100 99 100 99 100 100 100 99 100 100 100 22 52 0 40 1 0 0 0 0 5 5 61 99 100 100 100 100 100
0 0 0 4 50 10 97 96 31 18 100 100 65 92 97 100 100 100 100 100 100 100 100 100 100 100 42 60 31 0 0 0 0 0 0 4 5 5 15 100 100 100 100
2 1 3 55 16 5 100 81 95 37 61 93 99 100 98 96 100 100 100 100 97 98 100 100 100 100 78 57 33 34 3 2 0 0 5 2 2 0 2 4 84 92 58
0 3 5 79 84 29 74 52 14 29 100 100 84 91 93 100 100 100 100 100 100 100 100 100 100 100 100 74 98 73 98 95 14 5 5 2 4 0 0 0 0 8 5
3 5 5 26 6 57 5 18 46 37 76 47 98 100 100 100 93 100 100 100 100 100 100 100 100 100 100 100 100 100 98 16 99 100 100 78 0 0 0 0 0 0 0
5 5 5 0 5 19 17 92 100 89 100 72 48 72 98 100 100 100 100 100 100 100 100 100 100 100 100 100 98 61 91 100 100 100 72 25 0 0 0 0 0 0 0
71 10 0 0 0 0 9 51 79 100 100 96 100 100 100 100 100 100 100 100 100 100 100 100 100 100 100 100 52 95 100 100 100 74 49 4 0 3 0 0 0 0 0
5 5 5 13 66 98 5 4 9 5 44 98 95 100 60 95 100 98 100 100 100 100 100 100 100 100 100 100 100 100 100 5 2 100 0 0 16 0 0 0 0 0 2
5 5 24 97 100 66 0 33 100 100 5 30 60 100 95 85 95 100 100 100 100 100 100 100 100 100 100 100 100 100 16 5 0 0 0 0 0 0 0 0 0 0 0
20 60 17 76 88 56 0 34 100 100 12 90 100 100 72 51 90 99 86 100 100 100 100 100 100 100 100 88 2 2 4 0 0 0 0 0 0 0 0 0 0 0 0
71 96 100 88 5 1 3 76 100 98 36 100 80 81 8 8 41 56 100 95 95 100 100 97 100 100 61 6 2 1 0 0 0 0 19 6 0 0 0 0 0 0 0
100 100 87 48 5 61 91 75 100 85 95 100 100 15 30 62 96 100 98 100 100 100 100 58 44 0 0 0 3 0 0 0 0 2 0 0 0 0 0 0 0 0 0
100 100 98 95 100 84 93 13 16 99 100 100 25 6 5 11 7 6 5 5 5 4 11 3 15 16 0 0 0 0 0 78 84 18 0 0 0 0 3 74 86 1 26